Showing default

O3BF03, 56368

Orbit data source: Space-Track

O3BF03, 56368 is a payload satellite owned by O3B SES (LU) that was launched on Fri, 28 Apr 2023 UTC via an FALCON 9 launch vehicle from the Air Force Eastern Test Range (AFETR). Payload-class satellites include a variety of spacecraft equipped with specific instruments for various scientific and technological missions. These include communications satellites like Starlink; space stations such as the ISS; scientific satellites like the Hubble; Earth observation satellites from companies like Planet Labs, Umbra, and HawkEye 360; GPS; miniature CubeSats for education and research; and military/defense satellites.

Loading next visibility...
Identifier
56368, 2023-059B
Orbit
Active
Country
Flag of LULU / SES
Related business
Manufacturer
Boeing/ES
Mission
Partially operational Commercial Communications
Bus & Motor
702X, PPS5000
Mass
1,700 kg wet, 1,700 kg dry
Launch date (UTC)
2023-04-28 (3 years ago)
Launch vehicle
FALCON 9
Launch site
Air Force Eastern Test Range (AFETR)
Object type
Payload
Rocket body
Debris
Shape & HBR
Box + 2 Pan, 13.5 m
Radar Cross Section
27.396 m², Large (>1 m²)

Expand to show TLE details & history
Last TLE update: 2 days ago

TLE from 2 days ago
0 O3BF03
1 56368U 23059B   26171.20594808 -.00000024  00000-0  00000+0 0  9996
2 56368   0.0642 353.6357 0006721  93.9986 272.4403  5.00116470 54885
Epoch: 2026-06-20T04:56Z
TLE epoch observation values (Epoch: 2026-06-20T04:56:33.914Z)
Latitude
0.00711°
Longitude
17.43476°
Altitude
8,063.945 km
Speed
5.254 km/s
True Right ascension
23h 59m 59s
True Declination
0° 00' 26"
Sunlit
Object was in daylight at epoch
Visualization orbit readout
Latitude
Unknown
Longitude
Unknown
Altitude
Unknown
Speed
Unknown
Apparent Right ascension
Unknown
Apparent Declination
Unknown
Sunlit
N/A
Visualization observer readout
Local Sidereal Time
21:28:12
Azimuth
Unknown
Elevation
Unknown
Doppler factor
Unknown
Orbital elements
Apogee altitude
8,078.64 km
Perigee altitude
8,059.22 km
Semi-major axis
14,447.067 km
Eccentricity
0.00067
Inclination
0.0642°
RAAN
353.6357°
Arg. of periapsis
93.9986°
True anomaly
272.36335°
Mean anomaly
272.4403°
Eccentric anomaly
272.40183°
Mean motion
1.2499 °/min
Orbital period
288.02 mins
BSTAR
0
Loading maneuver chart data...
Computing Atmospheric mass density...
Loading historical data...
Loading historical data...
Loading historical data...
Loading historical data...
Loading historical data...
Loading historical data...
Loading historical data...
Other satellites on launch #59 in the year 2023 (2023-04-28 UTC)

Documentation

Showing up to 5 results
|